Weather History for Forest City, IA

Change the Weather History Date:

Wednesday, April 3, 2013

  Actual Average Record
Temperature  
Mean Temperature 32 °F -  
Max Temperature 44 °F 51 °F 60 °F (2012)
Min Temperature 21 °F 30 °F 21 °F (2013)
Degree Days  
Heating Degree Days 32    
Moisture  
Dew Point 24 °F    
Average Humidity 72    
Maximum Humidity 100    
Minimum Humidity 52    
Precipitation  
Precipitation 0.00 in - - ()
Sea Level Pressure  
Sea Level Pressure 30.30 in    
Wind  
Wind Speed 6 mph (SSE)    
Max Wind Speed 20 mph    
Max Gust Speed 25 mph    
Visibility 10 miles    
Events      
Averages and records for this station are not official NWS values.
T = Trace of Precipitation, MM = Missing Value Source: NWS Daily Summary

Daily Weather History Graph

Daily Weather History Graph

Search for Another Location

Airport:

Trip Planner

Search our weather history database for the weather conditions in past years. The results will help you decide how hot, cold, wet, or windy it might be!

Date:

Astronomy

Apr. 03, 2013 Rise Set
Actual Time 6:52 AM CDT 7:43 PM CDT
Civil Twilight 6:23 AM CDT 8:12 PM CDT
Nautical Twilight 5:49 AM CDT 8:47 PM CDT
Astronomical Twilight 5:13 AM CDT 9:22 PM CDT
Moon 2:44 AM CDT (4/3) 12:46 PM CDT (4/3)
Length of Visible Light 13h 49m
Length of Day
12h 51m
Last Quarter, 44% of the Moon is Illuminated
Apr 3
Last Quarter
Apr 10
New
Apr 18
First Quarter
Apr 25
Full
May 2
Last Quarter

Hourly Weather History & Observations

Time (CDT) Temp. Windchill Dew Point Humidity Pressure Visibility Wind Dir Wind Speed Gust Speed Precip Events Conditions
12:15 AM 26.6 °F - 23.0 °F 86% 30.33 in 10.0 mi Calm Calm - N/A   Clear
12:35 AM 26.6 °F - 23.0 °F 86% 30.33 in 10.0 mi Calm Calm - N/A   Clear
12:55 AM 26.6 °F - 21.2 °F 80% 30.33 in 10.0 mi Calm Calm - N/A   Clear
1:15 AM 26.6 °F - 23.0 °F 86% 30.33 in 10.0 mi Calm Calm - N/A   Clear
1:35 AM 24.8 °F - 21.2 °F 86% 30.34 in 10.0 mi Calm Calm - N/A   Clear
1:55 AM 26.6 °F - 23.0 °F 86% 30.34 in 10.0 mi Calm Calm - N/A   Clear
2:15 AM 23.0 °F - 21.2 °F 93% 30.34 in 10.0 mi Calm Calm - N/A   Clear
2:35 AM 23.0 °F - 21.2 °F 93% 30.34 in 10.0 mi Calm Calm - N/A   Clear
2:55 AM 23.0 °F - 23.0 °F 100% 30.34 in 10.0 mi Calm Calm - N/A   Clear
3:15 AM 23.0 °F - 23.0 °F 100% 30.35 in 10.0 mi Calm Calm - N/A   Clear
3:35 AM 23.0 °F - 21.2 °F 93% 30.35 in 10.0 mi Calm Calm - N/A   Clear
3:55 AM 23.0 °F - 21.2 °F 93% 30.35 in 10.0 mi Calm Calm - N/A   Clear
4:15 AM 21.2 °F - 21.2 °F 100% 30.34 in 10.0 mi Calm Calm - N/A   Clear
4:35 AM 23.0 °F - 21.2 °F 93% 30.35 in 10.0 mi Calm Calm - N/A   Clear
4:55 AM 23.0 °F - 21.2 °F 93% 30.35 in 10.0 mi Calm Calm - N/A   Clear
5:15 AM 23.0 °F - 21.2 °F 93% 30.36 in 10.0 mi Calm Calm - N/A   Clear
5:35 AM 21.2 °F - 21.2 °F 100% 30.36 in 10.0 mi Calm Calm - N/A   Clear
5:55 AM 21.2 °F - 21.2 °F 100% 30.36 in 10.0 mi Calm Calm - N/A   Clear
6:15 AM 21.2 °F - 19.4 °F 93% 30.36 in 10.0 mi Calm Calm - N/A   Clear
6:35 AM 21.2 °F - 19.4 °F 93% 30.37 in 10.0 mi Calm Calm - N/A   Clear
6:55 AM 23.0 °F 18.4 °F 21.2 °F 93% 30.38 in 10.0 mi SE 3.5 mph - N/A   Scattered Clouds
7:15 AM 23.0 °F 17.0 °F 21.2 °F 93% 30.37 in 10.0 mi East 4.6 mph - N/A   Clear
7:35 AM 24.8 °F - 21.2 °F 86% 30.38 in 10.0 mi Calm Calm - N/A   Clear
7:55 AM 26.6 °F - 23.0 °F 86% 30.38 in 10.0 mi Calm Calm - N/A   Clear
8:15 AM 28.4 °F 23.3 °F 23.0 °F 80% 30.38 in 10.0 mi SE 4.6 mph - N/A   Clear
8:35 AM 30.2 °F 22.6 °F 21.2 °F 69% 30.37 in 10.0 mi SE 8.1 mph - N/A   Clear
8:55 AM 32.0 °F 24.2 °F 21.2 °F 64% 30.38 in 10.0 mi SE 9.2 mph - N/A   Clear
9:15 AM 32.0 °F 23.0 °F 19.4 °F 60% 30.36 in 10.0 mi SE 11.5 mph - N/A   Clear
9:35 AM 32.0 °F 22.5 °F 19.4 °F 60% 30.36 in 10.0 mi SE 12.7 mph - N/A   Clear
9:55 AM 32.0 °F 22.1 °F 17.6 °F 55% 30.36 in 10.0 mi SE 13.8 mph - N/A   Clear
10:15 AM 33.8 °F 24.8 °F 19.4 °F 56% 30.35 in 10.0 mi SE 12.7 mph 18.4 mph N/A   Clear
10:35 AM 33.8 °F 25.8 °F 19.4 °F 56% 30.35 in 10.0 mi SE 10.4 mph - N/A   Clear
10:55 AM 33.8 °F 24.3 °F 19.4 °F 56% 30.35 in 10.0 mi SE 13.8 mph - N/A   Clear
11:15 AM 35.6 °F 26.6 °F 21.2 °F 56% 30.35 in 10.0 mi SE 13.8 mph - N/A   Clear
11:35 AM 35.6 °F 25.9 °F 21.2 °F 56% 30.35 in 10.0 mi South 16.1 mph - N/A   Clear
11:55 AM 35.6 °F 26.2 °F 21.2 °F 56% 30.35 in 10.0 mi SSE 15.0 mph 18.4 mph N/A   Clear
12:15 PM 37.4 °F 28.2 °F 21.2 °F 52% 30.34 in 10.0 mi SSE 16.1 mph 20.7 mph N/A   Scattered Clouds
12:35 PM 37.4 °F 28.2 °F 21.2 °F 52% 30.33 in 10.0 mi SSE 16.1 mph - N/A   Overcast
1:15 PM 39.2 °F 29.8 °F 23.0 °F 52% 30.32 in 10.0 mi SSE 18.4 mph - N/A   Clear
1:35 PM 39.2 °F 29.6 °F 23.0 °F 52% 30.31 in 10.0 mi SSE 19.6 mph - N/A   Clear
1:55 PM 41.0 °F 32.5 °F 24.8 °F 53% 30.32 in 10.0 mi SSE 17.3 mph 23.0 mph N/A   Clear
2:15 PM 41.0 °F 32.5 °F 26.6 °F 57% 30.31 in 10.0 mi SSE 17.3 mph 23.0 mph N/A   Clear
2:35 PM 42.8 °F 34.5 °F 26.6 °F 53% 30.30 in 10.0 mi South 18.4 mph - N/A   Clear
2:55 PM 42.8 °F 35.4 °F 26.6 °F 53% 30.29 in 10.0 mi South 15.0 mph - N/A   Clear
3:15 PM 42.8 °F 34.5 °F 28.4 °F 57% 30.28 in 10.0 mi South 18.4 mph 24.2 mph N/A   Clear
3:35 PM 42.8 °F 35.4 °F 28.4 °F 57% 30.28 in 10.0 mi South 15.0 mph 25.3 mph N/A   Clear
3:55 PM 44.6 °F 37.8 °F 28.4 °F 53% 30.26 in 10.0 mi South 15.0 mph 23.0 mph N/A   Clear
4:15 PM 42.8 °F 35.1 °F 26.6 °F 53% 30.25 in 10.0 mi South 16.1 mph - N/A   Clear
4:35 PM 44.6 °F 36.9 °F 28.4 °F 53% 30.24 in 10.0 mi South 18.4 mph 24.2 mph N/A   Clear
4:55 PM 44.6 °F 36.6 °F 28.4 °F 53% 30.24 in 10.0 mi South 19.6 mph 24.2 mph N/A   Clear
5:15 PM 44.6 °F 36.9 °F 28.4 °F 53% 30.23 in 10.0 mi South 18.4 mph - N/A   Clear
5:35 PM 42.8 °F 34.5 °F 28.4 °F 57% 30.22 in 10.0 mi South 18.4 mph - N/A   Clear
5:55 PM 42.8 °F 35.1 °F 28.4 °F 57% 30.22 in 10.0 mi South 16.1 mph - N/A   Clear
6:15 PM 42.8 °F 35.8 °F 28.4 °F 57% 30.21 in 10.0 mi South 13.8 mph - N/A   Clear
6:35 PM 42.8 °F 36.6 °F 28.4 °F 57% 30.21 in 10.0 mi South 11.5 mph - N/A   Clear
6:55 PM 41.0 °F 33.1 °F 28.4 °F 61% 30.21 in 10.0 mi South 15.0 mph - N/A   Clear
7:15 PM 41.0 °F 34.3 °F 28.4 °F 61% 30.21 in 10.0 mi South 11.5 mph - N/A   Clear
7:35 PM 39.2 °F 32.5 °F 30.2 °F 70% 30.20 in 10.0 mi South 10.4 mph - N/A   Clear
7:55 PM 37.4 °F 30.3 °F 30.2 °F 75% 30.20 in 10.0 mi South 10.4 mph - N/A   Clear
8:15 PM 37.4 °F 31.4 °F 28.4 °F 70% 30.20 in 10.0 mi SSE 8.1 mph - N/A   Clear
8:35 PM 35.6 °F 29.9 °F 28.4 °F 75% 30.20 in 10.0 mi SSE 6.9 mph - N/A   Clear
8:55 PM 35.6 °F 29.2 °F 28.4 °F 75% 30.20 in 10.0 mi SSE 8.1 mph - N/A   Clear
9:15 PM 35.6 °F 28.6 °F 28.4 °F 75% 30.20 in 10.0 mi SSE 9.2 mph - N/A   Clear
9:35 PM 35.6 °F 28.6 °F 28.4 °F 75% 30.20 in 10.0 mi SSE 9.2 mph - N/A   Clear
9:55 PM 33.8 °F 25.8 °F 28.4 °F 81% 30.20 in 10.0 mi SSE 10.4 mph - N/A   Clear
10:15 PM 33.8 °F 24.8 °F 28.4 °F 81% 30.20 in 10.0 mi SSE 12.7 mph - N/A   Clear
10:35 PM 33.8 °F 25.8 °F 26.6 °F 75% 30.19 in 10.0 mi SSE 10.4 mph - N/A   Clear
10:55 PM 33.8 °F 26.4 °F 26.6 °F 75% 30.19 in 10.0 mi South 9.2 mph - N/A   Clear
11:15 PM 33.8 °F 25.3 °F 26.6 °F 75% 30.18 in 10.0 mi South 11.5 mph - N/A   Clear
11:35 PM 33.8 °F 25.3 °F 26.6 °F 75% 30.17 in 10.0 mi South 11.5 mph - N/A   Clear
11:55 PM 33.8 °F 24.3 °F 26.6 °F 75% 30.17 in 10.0 mi South 13.8 mph - N/A   Clear